Overview Statistics Trail Chart Weather Telemetry Raw packets
 

This is the latest recevied weather packets stored in our database for station/object OK2KJT-11. If no packets are shown the sender has not sent any weather packets the latest 10 day(s).

<< 47 48 49 50 51 52 53 >>
Time Temp. Humidity Pressure Rain* Wind** Luminosity Snow
1787979114 12.78° C 100% 1017 hPa - - - -
1787978514 12.78° C 100% 1016.9 hPa - - - -
1787977915 12.78° C 100% 1016.6 hPa - - - -
1787977314 13.33° C 100% 1016.6 hPa - - - -
1787976715 13.33° C 100% 1016.5 hPa - - - -
1787976115 13.33° C 99% 1016.3 hPa - - - -
1787975516 13.33° C 99% 1016.4 hPa - - - -
1787974916 13.33° C 99% 1016.5 hPa - - - -
1787974316 13.33° C 99% 1016.4 hPa - - - -
1787973716 13.33° C 98% 1016.6 hPa - - - -
1787973117 13.33° C 98% 1016.5 hPa - - - -
1787972518 13.33° C 97% 1016.6 hPa - - - -
1787971918 13.33° C 97% 1016.6 hPa - - - -
1787971318 13.33° C 96% 1016.5 hPa - - - -
1787970719 13.33° C 95% 1016.3 hPa - - - -
1787970120 13.33° C 96% 1016.2 hPa - - - -
1787969520 13.33° C 95% 1016.2 hPa - - - -
1787968921 13.33° C 93% 1016 hPa - - - -
1787968321 13.89° C 89% 1015.8 hPa - - - -
1787967721 13.89° C 89% 1015.6 hPa - - - -
1787967122 13.89° C 90% 1015.4 hPa - - - -
1787966523 13.33° C 92% 1015.4 hPa - - - -
1787965923 13.33° C 92% 1015.5 hPa - - - -
1787965323 13.33° C 90% 1015.6 hPa - - - -
1787964723 13.33° C 88% 1015.6 hPa - - - -

* Rain since midnight (hover to see other rain measurements)
** Current wind speed in m/s (hover to see current wind gust speed)